Regional Weather Roundup
Issued by NWS

Home | Current Version | Previous Version | Graphics & Text | Print | Product List | Glossary On
Versions: 1 2 3 4 5 6 7 8 9 10 11 12 13 14 15 16 17 18 19 20 21 22 23 24 25 26 27 28 29 30 31 32 33 34 35 36 37 38 39 40 41 42 43 44 45 46 47 48 49 50
000
ASUS43 KLMK 030202
RWRKY
KENTUCKY REGIONAL WEATHER ROUNDUP
NATIONAL WEATHER SERVICE LOUISVILLE KY
1000 PM EDT TUE JUN 02 2015

NOTE "FAIR" INDICATES FEW OR NO CLOUDS BELOW 12,000 FEET
WITH NO SIGNIFICANT WEATHER AND/OR OBSTRUCTIONS TO VISIBILITY.

KYZ001>023-026-027-061>063-070>075-030300-
WESTERN AND SOUTH CENTRAL KENTUCKY

CITY           SKY/WX    TMP DP  RH WIND       PRES   REMARKS
PADUCAH        CLOUDY    64  58  80 NE5       30.05S
HENDERSON      CLEAR     61  55  82 CALM      30.05S
OWENSBORO      CLEAR     63  57  80 CALM      30.07S
HOPKINSVILLE   DRIZZLE   62  60  92 NE5       30.05S
BOWLING GREEN  CLOUDY    64  58  80 N3        30.06S
GLASGOW        NOT AVBL
$$

KYZ024-025-028>034-038-045-046-053-030300-
NORTH CENTRAL KENTUCKY

CITY           SKY/WX    TMP DP  RH WIND       PRES   REMARKS
LOUISVILLE/SDF MOCLDY    63  53  70 NE8       30.09R
LOUISVILLE/LOU CLOUDY    63  53  70 NE5       30.09S
FORT KNOX      MOCLDY    60  53  79 NE8       30.06F
$$

KYZ035>037-039>044-047>052-055>060-089>105-030300-
NORTHEAST KENTUCKY

CITY           SKY/WX    TMP DP  RH WIND       PRES   REMARKS
LEXINGTON      CLOUDY    59  53  80 NE5       30.10R
COVINGTON      CLOUDY    61  52  72 CALM      30.10S
FRANKFORT      CLOUDY    60  53  77 N3        30.09R
$$

KYZ054-064>069-076>088-106>120-030300-
SOUTHEAST KENTUCKY

CITY           SKY/WX    TMP DP  RH WIND       PRES   REMARKS
JACKSON        CLOUDY    58  55  90 CALM      30.09R FOG
LONDON         CLOUDY    61  54  77 N7        30.07R
SOMERSET       NOT AVBL
MIDDLESBORO    CLOUDY    64  59  85 CALM      30.05R
MONTICELLO     CLOUDY    62  59  90 N8        30.09R
$$




USA.gov is the U.S. government's official web portal to all federal, state and local government web resources and services.